THOR ABLESTAR DEB, 1942

Orbit data source: Space-Track

THOR ABLESTAR DEB, 1942 is space debris in LEO originally from a launch on Thu, 29 Jun 1961 UTC launched from the Air Force Eastern Test Range (AFETR). Debris objects in space refer to the collection of defunct objects orbiting the Earth. Examples of debris include non-operational satellites, rocket bodies, and fragments generated from explosions, collisions, or faulty payload assembly.

Loading next visibility...
Identifier
1942, 1961-015HS
Orbit
LEO
Country
Flag of USUS
Related business
Manufacturer
Unknown
Mission
Spacecraft
Bus & Motor
Unknown
Mass
Unknown
Launch date (UTC)
1961-06-29 (64 years ago)
Launch vehicle
Unknown
Launch site
Air Force Eastern Test Range (AFETR)
Object type
Payload
Rocket body
Debris
Shape & HBR
Unknown shape, 0.1 m
Radar Cross Section
Small (<0.1 m²)

Expand to show TLE details & history
Last TLE update: 14 hours ago

TLE from 14 hours ago
0 THOR ABLESTAR DEB
1  1942U 61015HS  25298.00023346  .00000466  00000-0  10856-2 0  9991
2  1942  67.2678 133.9545 0336020  51.9062  96.8382 13.13145300 85933
Epoch: 2025-10-25T00:00Z
TLE epoch observation values (Epoch: 2025-10-25T00:00:20.170Z)
Latitude
25.20613°
Longitude
-91.08238°
Altitude
1,251.975 km
Speed
7.213 km/s
True Right ascension
20h 10m 33s
True Declination
25° 04' 57"
Sunlit
Object was in daylight at epoch
Visualization orbit readout
Latitude
Unknown
Longitude
Unknown
Altitude
Unknown
Speed
Unknown
Apparent Right ascension
Unknown
Apparent Declination
Unknown
Sunlit
N/A
Visualization observer readout
Local Sidereal Time
09:41:36
Azimuth
Unknown
Elevation
Unknown
Doppler factor
Unknown
Orbital elements
Apogee altitude
1,464.374 km
Perigee altitude
954.46 km
Semi-major axis
7,587.554 km
Eccentricity
0.0336
Inclination
67.2678°
RAAN
133.9545°
Arg. of periapsis
51.9062°
True anomaly
100.6395°
Mean anomaly
96.8382°
Eccentric anomaly
98.74109°
Mean motion
3.2839 °/min
Orbital period
109.63 mins
BSTAR
0.0010856
Loading maneuver chart data...
Computing Atmospheric mass density...

Documentation

Showing up to 5 results
|